Location: Serpentine
(32.3617°S, 115.9768°E)
Time: 15:51:27
(UTC+08:00)

Envisat - Visible Passes

Search period start: 02 December 2021 00:00
Search period end: 12 December 2021 00:00
Orbit: 764 x 766 km, 98.2° (Epoch: 01 December)

Date Brightness Start Highest point End Pass type
(mag) Time Alt. Az. Time Alt. Az. Time Alt. Az.
02 Dec 5.7 03:31:19 10° ENE 03:35:01 21° ESE 03:38:45 10° SSE visible
03 Dec 3.1 04:31:43 10° NNE 04:36:49 89° ESE 04:41:59 10° SSW visible
04 Dec 4.7 03:55:27 10° NE 04:00:06 37° ESE 04:04:48 10° S visible
05 Dec 5.9 03:20:33 10° ENE 03:23:35 16° ESE 03:26:38 10° SSE visible
06 Dec 3.5 04:20:14 10° NNE 04:25:17 68° ESE 04:30:24 10° S visible
07 Dec 5.2 03:44:18 10° NE 03:48:38 28° ESE 03:53:00 10° SSE visible
08 Dec 6.1 03:10:12 10° E 03:12:11 12° ESE 03:14:10 10° SE visible
09 Dec 4.0 04:08:50 10° NNE 04:13:46 52° ESE 04:18:45 10° S visible
10 Dec 5.6 03:33:18 10° ENE 03:37:10 22° ESE 03:41:05 10° SSE visible
